[[{"header":{"parameterUnit":"m.s-1","parameterCategory":1,"la1":30.2991,"la2":30.254,"lo1":-89.0895,"lo2":-89.0444,"dy":0.0017,"dx":0.0017,"nx":28,"ny":28,"refTime":"2024-08-16T21:00:00:Z","depth":0,"parameterNumber":2,"parameterNumberName":"U-component_of_WINDS"},"data":[0,0,0,0,0,0,0,0,0,0,0,0,0,0,0,0,0,0,0,0,0,0,0,0,0,0,0,0,0,0,0,0,0,0,0,0,0,0,0,0,0,0,0,0,0,0,0,0,0,0,0,0,0,0,0,0,0,0,-0.8298,-0.8298,0,-0.8306,-0.8306,-0.8306,-0.8287,-0.8286,-0.8285,-0.8285,-0.8294,-0.8295,-0.8296,0,0,0,0,0,0,0,0,0,0,0,0,0,-0.8266,-0.8267,-0.8298,-0.8298,-0.8298,-0.8306,-0.8306,-0.8306,-0.8287,-0.8286,-0.8285,-0.8284,-0.8294,-0.8295,-0.8296,0,0,0,0,0,0,0,0,0,0,0,0,0,-0.8278,-0.8267,-0.8298,-0.8289,-0.8288,-0.8306,-0.8306,-0.8306,-0.8287,-0.8286,-0.8285,-0.8284,-0.8294,-0.8295,-0.8296,-0.8323,0,0,-0.83,-0.83,0,0,0,0,0,0,0,0,-0.8277,-0.8279,-0.829,-0.829,-0.8289,-0.8294,-0.8299,-0.8312,-0.8287,-0.8287,-0.8285,-0.8284,-0.8295,-0.8296,-0.83,-0.8323,-0.8324,-0.83,-0.8301,-0.8301,-0.8302,0,0,0,0,0,0,0,-0.8276,-0.8279,-0.8301,-0.829,-0.829,-0.8285,-0.8286,-0.8301,-0.8296,-0.8287,-0.8286,-0.8287,-0.8294,-0.8299,-0.83,-0.8324,-0.83,-0.8301,-0.8302,-0.8302,-0.8371,-0.8372,0,0,0,0,0,0,-0.8277,-0.8278,-0.8301,-0.8301,-0.8281,-0.8287,-0.8287,-0.8294,-0.8296,-0.8296,-0.8288,-0.8286,-0.8297,-0.8298,-0.83,-0.8333,-0.8301,-0.8302,-0.8303,-0.837,-0.8371,-0.8373,0,0,0,0,0,0,-0.8276,-0.8279,-0.83,-0.8289,-0.8292,-0.8288,-0.8295,-0.8294,-0.8298,-0.8297,-0.8296,-0.8293,-0.8296,-0.8298,-0.8318,-0.8333,-0.8303,-0.8304,-0.8369,-0.8371,-0.8372,-0.8398,0,0,0,0,0,0,-0.8275,-0.8279,-0.8288,-0.829,-0.8292,-0.8317,-0.8296,-0.8295,-0.83,-0.8298,-0.8301,-0.8301,-0.8296,-0.8316,-0.8319,-0.8334,-0.8305,-0.8368,-0.837,-0.8372,-0.8395,-0.84,-0.8404,0,0,0,0,0,-0.8274,-0.8295,-0.8289,-0.8292,-0.8304,-0.8318,-0.832,-0.8313,-0.8302,-0.8312,-0.8311,-0.8301,-0.8331,-0.8318,-0.8321,-0.8337,-0.8367,-0.8369,-0.8371,-0.8394,-0.8399,-0.8404,0,0,0,0,0,0,-0.8296,-0.8295,-0.8288,-0.831,-0.8314,-0.8315,-0.8327,-0.8319,-0.8327,-0.8325,-0.8316,-0.8317,-0.8339,-0.8339,-0.8325,-0.8364,-0.8347,-0.835,-0.8362,-0.8368,-0.8372,-0.8371,-0.8306,0,0,0,0,0,-0.8303,-0.8314,-0.8313,-0.8332,-0.8335,-0.8331,-0.8337,-0.8331,-0.8335,-0.8337,-0.8338,-0.8343,-0.8353,-0.836,-0.837,-0.8395,-0.8396,-0.8408,-0.8412,-0.8416,-0.8419,-0.8434,-0.8439,-0.8381,-0.8381,-0.838,0,0,-0.8318,-0.8319,-0.8326,-0.8337,-0.8339,-0.8352,-0.8332,-0.8346,-0.8355,-0.8339,-0.8358,-0.8359,-0.8363,-0.8386,-0.8396,-0.8388,-0.8435,-0.8419,-0.8421,-0.8423,-0.8437,-0.8442,-0.8447,-0.8382,-0.8382,-0.8382,0,0,-0.8352,-0.8353,-0.837,-0.8374,-0.8378,-0.8376,-0.838,-0.8382,-0.8382,-0.84,-0.8389,-0.84,-0.8418,-0.8423,-0.8427,-0.8464,-0.8456,-0.8468,-0.849,-0.8505,-0.8509,-0.8513,-0.8528,-0.8533,-0.8471,-0.8471,-0.8471,0,-0.837,-0.8388,-0.838,-0.8395,-0.84,-0.8387,-0.8405,-0.8408,-0.8416,-0.842,-0.841,-0.8434,-0.8436,-0.846,-0.847,-0.8473,-0.8479,-0.8468,-0.8509,-0.8513,-0.8517,-0.8531,-0.8536,-0.8472,-0.8472,-0.8472,-0.8472,0,-0.8411,-0.8424,-0.8437,-0.8445,-0.8452,-0.8468,-0.8463,-0.8471,-0.8466,-0.8464,-0.8484,-0.8486,-0.8497,-0.8502,-0.8497,-0.8526,-0.8521,-0.851,-0.8493,-0.8524,-0.8537,-0.8542,-0.8474,-0.8474,-0.8473,-0.8473,0,0,-0.8459,-0.8463,-0.8468,-0.8472,-0.8476,-0.8486,-0.8502,-0.8512,-0.852,-0.8526,-0.854,-0.8556,-0.8546,-0.8552,-0.8547,-0.856,-0.8591,-0.8547,-0.8547,-0.8556,-0.8625,-0.8634,-0.864,-0.8585,-0.8586,-0.8586,-0.8625,0,-0.8494,-0.8521,-0.8515,-0.8542,-0.8555,-0.8542,-0.8556,-0.8561,-0.8561,-0.8571,-0.8571,-0.8583,-0.8569,-0.8572,-0.8584,-0.8584,-0.8605,-0.8581,-0.8599,-0.8599,-0.8599,-0.8647,-0.8656,-0.8692,-0.863,-0.8631,-0.8632,0,-0.8538,-0.8546,-0.8574,-0.8578,-0.8583,-0.8595,-0.8605,-0.8615,-0.8621,-0.862,-0.8626,-0.8619,-0.8636,-0.8618,-0.8642,-0.8626,-0.8633,-0.8634,-0.8636,-0.8638,-0.8618,-0.8651,-0.8704,-0.871,-0.8639,-0.8639,-0.8638,0,-0.8572,-0.8589,-0.8609,-0.8612,-0.8617,-0.8626,-0.8629,-0.8633,-0.864,-0.8649,-0.8653,-0.8664,-0.867,-0.8678,-0.8675,-0.8662,-0.87,-0.8681,-0.87,-0.87,-0.8709,-0.8709,-0.8765,-0.8712,-0.8712,-0.8712,-0.8712,0,-0.8612,-0.863,-0.8624,-0.8636,-0.8657,-0.865,-0.8671,-0.8672,-0.8676,-0.8689,-0.8679,-0.8691,-0.8685,-0.8697,-0.8694,-0.8715,-0.8718,-0.8718,-0.8717,-0.872,-0.872,-0.8725,-0.8722,-0.8713,-0.8713,-0.8713,-0.8712,0,-0.8653,-0.865,-0.8671,-0.8673,-0.8674,-0.869,-0.8692,-0.8704,-0.8703,-0.8719,-0.8723,-0.8721,-0.8735,-0.8732,-0.8747,-0.8745,-0.8772,-0.8768,-0.8771,-0.877,-0.879,-0.8788,-0.8851,-0.886,-0.8801,-0.8801,-0.8802,0,-0.8679,-0.8693,-0.8697,-0.8705,-0.8708,-0.8721,-0.8728,-0.8722,-0.873,-0.8738,-0.875,-0.8763,-0.8773,-0.8796,-0.8797,-0.8809,-0.8805,-0.8826,-0.8807,-0.8809,-0.8807,-0.8807,-0.8809,-0.8831,-0.8831,-0.8832,-0.8832,0,-0.8727,-0.8725,-0.8735,-0.8746,-0.8755,-0.8763,-0.877,-0.8777,-0.8772,-0.8782,-0.8796,-0.8804,-0.882,-0.8833,-0.8845,-0.8848,-0.884,-0.8838,-0.8844,-0.8847,-0.8848,-0.8849,-0.8782,-0.8837,-0.8837,-0.8836,-0.8836,-0.8836,-0.8763,-0.8775,-0.878,-0.8793,-0.8797,-0.8804,-0.8816,-0.8817,-0.8828,-0.8841,-0.8836,-0.8853,-0.8859,-0.8874,-0.8878,-0.8892,-0.8884,-0.8891,-0.8893,-0.8895,-0.8898,-0.8845,-0.8893,-0.8893,-0.8893,-0.8893,-0.8893,0,-0.8811,-0.8814,-0.8825,-0.8836,-0.8846,-0.8837,-0.8844,-0.8854,-0.8868,-0.8875,-0.8885,-0.8902,-0.8916,-0.8917,-0.893,-0.8941,-0.8938,-0.8945,-0.8944,-0.8945,-0.8904,-0.8899,-0.8947,-0.8947,-0.8947,-0.8947,-0.8947,-0.8947,-0.8837,-0.8858,-0.8857,-0.888,-0.8883,-0.8899,-0.8904,-0.8911,-0.8916,-0.8936,-0.8947,-0.8948,-0.8953,-0.8966,-0.8978,-0.8979,-0.8984,-0.8993,-0.8992,-0.8954,-0.8948,-0.8943,-0.8938,-0.8994,-0.8994,-0.9033,-0.9033,-0.9033]},{"header":{"parameterUnit":"m.s-1","parameterCategory":1,"la1":30.2991,"la2":30.254,"lo1":-89.0895,"lo2":-89.0444,"dy":0.0017,"dx":0.0017,"nx":28,"ny":28,"refTime":"2024-08-16T21:00:00:Z","depth":0,"parameterNumber":3,"parameterNumberName":"V-component_of_WINDS"},"data":[0,0,0,0,0,0,0,0,0,0,0,0,0,0,0,0,0,0,0,0,0,0,0,0,0,0,0,0,0,0,0,0,0,0,0,0,0,0,0,0,0,0,0,0,0,0,0,0,0,0,0,0,0,0,0,0,0,0,3.3657,3.3657,0,3.3647,3.3647,3.3647,3.3594,3.3592,3.3591,3.359,3.358,3.3581,3.3582,0,0,0,0,0,0,0,0,0,0,0,0,0,3.3632,3.3632,3.3657,3.3657,3.3657,3.3647,3.3647,3.3647,3.3594,3.3592,3.3591,3.3589,3.358,3.3581,3.3582,0,0,0,0,0,0,0,0,0,0,0,0,0,3.3634,3.3633,3.3657,3.3629,3.3627,3.3647,3.3647,3.3647,3.3594,3.3592,3.359,3.3589,3.3579,3.3581,3.3582,3.3628,0,0,3.3586,3.3587,0,0,0,0,0,0,0,0,3.3634,3.3635,3.3634,3.3631,3.3628,3.362,3.3634,3.364,3.3595,3.3607,3.359,3.3588,3.3595,3.3595,3.3597,3.3628,3.3628,3.3586,3.3587,3.3588,3.3588,0,0,0,0,0,0,0,3.3634,3.3635,3.3653,3.3634,3.3631,3.3618,3.3616,3.3635,3.3612,3.3605,3.3602,3.3601,3.3593,3.3596,3.3596,3.3627,3.3586,3.3588,3.3588,3.3589,3.3694,3.3696,0,0,0,0,0,0,3.3638,3.3636,3.3653,3.3653,3.3627,3.362,3.3618,3.3624,3.3611,3.3607,3.3603,3.3599,3.3594,3.3595,3.3596,3.3648,3.3588,3.3589,3.359,3.3692,3.3695,3.3697,0,0,0,0,0,0,3.3637,3.364,3.3654,3.3643,3.3644,3.3622,3.363,3.3625,3.3628,3.3609,3.3605,3.361,3.3593,3.3594,3.362,3.3647,3.359,3.3591,3.369,3.3693,3.3696,3.3753,0,0,0,0,0,0,3.3637,3.364,3.3657,3.3644,3.3645,3.3679,3.3632,3.3626,3.363,3.3625,3.3615,3.3611,3.3592,3.3619,3.3622,3.3648,3.3592,3.3688,3.3691,3.3695,3.3749,3.3758,3.3765,0,0,0,0,0,3.3636,3.3674,3.3658,3.3661,3.3666,3.368,3.3681,3.3657,3.3633,3.365,3.3637,3.3611,3.3644,3.3622,3.3625,3.3652,3.3686,3.369,3.3695,3.3745,3.3756,3.3765,0,0,0,0,0,0,3.3692,3.3672,3.3654,3.3689,3.3687,3.3671,3.3692,3.367,3.3674,3.3669,3.364,3.3639,3.3669,3.3663,3.3639,3.3695,3.366,3.3666,3.3697,3.3708,3.3716,3.3716,3.3593,0,0,0,0,0,3.3708,3.3721,3.3703,3.3736,3.3736,3.3714,3.372,3.3702,3.3698,3.3697,3.3687,3.3684,3.3694,3.3701,3.3708,3.3748,3.3744,3.3768,3.3776,3.3783,3.3788,3.3807,3.3817,3.3712,3.3711,3.3711,0,0,3.3742,3.3733,3.3743,3.3747,3.3743,3.3757,3.3714,3.3731,3.3741,3.37,3.3723,3.3716,3.3711,3.3744,3.3758,3.374,3.3816,3.3789,3.3794,3.3795,3.3812,3.3822,3.3831,3.3715,3.3714,3.3714,0,0,3.381,3.3805,3.3831,3.3828,3.3822,3.3807,3.3814,3.3802,3.3795,3.3818,3.3787,3.3799,3.3817,3.3814,3.3815,3.3883,3.3858,3.3886,3.3929,3.3948,3.3956,3.3963,3.3986,3.3995,3.3891,3.3891,3.3891,0,3.3853,3.3872,3.3847,3.3866,3.3868,3.3831,3.3857,3.3855,3.3853,3.3855,3.3835,3.3855,3.385,3.3881,3.3897,3.39,3.3906,3.3886,3.3957,3.3964,3.397,3.3992,3.4,3.3894,3.3894,3.3894,3.3893,0,3.3925,3.3939,3.396,3.3958,3.3963,3.3985,3.3963,3.3971,3.3953,3.3941,3.3965,3.3957,3.3962,3.3968,3.3951,3.3997,3.3986,3.3962,3.3926,3.3984,3.4003,3.4012,3.3899,3.3898,3.3897,3.3896,0,0,3.4027,3.401,3.4018,3.4016,3.4007,3.4017,3.4038,3.4042,3.4049,3.4049,3.4065,3.408,3.4058,3.4059,3.4042,3.4059,3.4111,3.4033,3.4032,3.4046,3.4159,3.4176,3.4186,3.4096,3.4097,3.4098,3.4159,0,3.4091,3.4124,3.4102,3.4139,3.4151,3.4116,3.4134,3.413,3.4119,3.4128,3.4116,3.4127,3.4098,3.4098,3.4114,3.4101,3.4133,3.4097,3.4109,3.411,3.411,3.4196,3.4214,3.4272,3.4167,3.4168,3.4169,0,3.417,3.4172,3.421,3.4197,3.4202,3.4218,3.422,3.4229,3.4224,3.4215,3.4216,3.4194,3.4213,3.4179,3.4205,3.418,3.4184,3.4179,3.4181,3.418,3.4142,3.4196,3.4291,3.4299,3.4181,3.418,3.4179,0,3.4239,3.4252,3.4275,3.4275,3.4261,3.4273,3.4268,3.4262,3.4266,3.4267,3.4269,3.4274,3.4276,3.428,3.426,3.4237,3.4288,3.4252,3.428,3.4281,3.4291,3.429,3.4386,3.4296,3.4296,3.4296,3.4296,0,3.4312,3.4336,3.4306,3.432,3.4346,3.4321,3.4347,3.4339,3.4333,3.4345,3.4316,3.4328,3.4301,3.4311,3.4295,3.4318,3.432,3.4312,3.4308,3.4314,3.4315,3.4315,3.431,3.4298,3.4298,3.4297,3.4297,0,3.4393,3.4374,3.4397,3.4382,3.4379,3.4399,3.4386,3.4399,3.4386,3.4402,3.4404,3.4384,3.4394,3.4374,3.4381,3.4371,3.4402,3.4392,3.4404,3.44,3.4428,3.4425,3.4526,3.4537,3.4442,3.4443,3.4444,0,3.444,3.4457,3.4444,3.445,3.4446,3.4456,3.4459,3.4435,3.444,3.4436,3.4449,3.4456,3.446,3.4477,3.4463,3.4468,3.4457,3.4492,3.4458,3.4463,3.4456,3.4454,3.4456,3.4499,3.45,3.4501,3.4502,0,3.4525,3.4514,3.452,3.4523,3.4527,3.4529,3.4528,3.4534,3.4508,3.4515,3.4524,3.4527,3.4534,3.4541,3.4543,3.4538,3.4515,3.4513,3.4519,3.4525,3.453,3.4526,3.4421,3.451,3.4509,3.4509,3.4508,3.4508,3.4589,3.4602,3.4595,3.4602,3.4599,3.4598,3.4609,3.4597,3.4604,3.4607,3.4593,3.4605,3.4599,3.46,3.4597,3.4606,3.459,3.46,3.4602,3.4605,3.4609,3.453,3.4607,3.4606,3.4606,3.4606,3.4606,0,3.4671,3.4664,3.4671,3.467,3.4676,3.4654,3.4652,3.4658,3.4669,3.4665,3.467,3.468,3.4687,3.4673,3.4678,3.4688,3.4677,3.469,3.4688,3.4687,3.4623,3.4616,3.4698,3.4698,3.4698,3.4698,3.4698,3.4698,3.4714,3.4735,3.4724,3.4743,3.4736,3.4747,3.4748,3.4747,3.4744,3.4756,3.4761,3.4753,3.4745,3.4749,3.4754,3.475,3.4752,3.4768,3.476,3.4701,3.4692,3.4683,3.4676,3.4769,3.4769,3.4823,3.4824,3.4824]}]]